Location: Monfort
(47.1967°N, 0.2115°W)
Time: 04:14:14
(UTC+00:00)

Cosmos 1825 Rocket - Pass Details

Date: 24 October 2020
Orbit: 603 x 631 km, 82.5° (Epoch: 01 December)

Event Time Altitude Azimuth Distance (km) Brightness Sun altitude
Rises 17:21:12 0° 356° (N) 2,934 6.9 -4.9°
Reaches altitude 10° 17:23:34 10° 4° (N) 2,019 6.0 -5.3°
Maximum altitude 17:27:49 41° 75° (ENE) 909 4.0 -6.0°
Drops below altitude 10° 17:32:00 10° 146° (SSE) 1,990 5.9 -6.7°
Sets 17:34:19 0° 154° (SSE) 2,887 6.8 -7.1°
